Back to catalog

DELTA 1 R/B(1)

AliveUNKNOWN
NORAD 10856·ROCKET BODY·🇺🇸 United States

Launched May 11, 1978 from Cape Canaveral Space Force Station

Loading…

Next Passes (next 24 hours)

TLE

FreshSource: Space-Track

Epoch: Sep 14, 2026, 14:02 UTC

1 10856U 78044B   26257.58495179  .00000018  00000-0 -95246-3 0  9992
2 10856  27.9415 133.8770 1095448 261.3318  91.0993 10.29754749820294

Track DELTA 1 R/B(1) in real time with AllMySat

Download on the App Store